This is the latest recevied weather packets stored in our database for station/object VK4HIT-13. If no packets are shown the sender has not sent any weather packets the latest 10 day(s).
| Time | Temp. | Humidity | Pressure | Rain* | Wind** | Luminosity | Snow |
|---|---|---|---|---|---|---|---|
| 1777519481 | 21.67° C | 71% | 1024.6 hPa | 0 mm | - | - | - |
| 1777519181 | 21.67° C | 70% | 1024.6 hPa | 0 mm | - | - | - |
| 1777518881 | 22.22° C | 71% | 1024.5 hPa | 0 mm | - | - | - |
| 1777518581 | 21.67° C | 72% | 1024.6 hPa | 0 mm | - | - | - |
| 1777518281 | 21.67° C | 72% | 1024.6 hPa | 0 mm | - | - | - |
| 1777517981 | 21.67° C | 71% | 1024.6 hPa | 0 mm | - | - | - |
| 1777517681 | 21.67° C | 75% | 1024.6 hPa | 0 mm | - | - | - |
| 1777517381 | 21.11° C | 75% | 1024.7 hPa | 0 mm | - | - | - |
| 1777517081 | 20.56° C | 75% | 1024.8 hPa | 0 mm | - | - | - |
| 1777516781 | 20.56° C | 77% | 1025.1 hPa | 0 mm | - | - | - |
| 1777516481 | 20.56° C | 78% | 1025.2 hPa | 0 mm | - | - | - |
| 1777516181 | 20.56° C | 77% | 1025.4 hPa | 0 mm | - | - | - |
| 1777515881 | 20° C | 79% | 1025.6 hPa | 0 mm | - | - | - |
| 1777515581 | 20° C | 79% | 1025.8 hPa | 0 mm | - | - | - |
| 1777515281 | 20° C | 79% | 1025.9 hPa | 0 mm | - | - | - |
| 1777514981 | 20° C | 81% | 1026.1 hPa | 0 mm | - | - | - |
| 1777514681 | 19.44° C | 82% | 1026 hPa | 0.25 mm | - | - | - |
| 1777514381 | 19.44° C | 82% | 1026.1 hPa | 0.25 mm | - | - | - |
| 1777514081 | 19.44° C | 83% | 1026.1 hPa | 0.25 mm | - | - | - |
| 1777513781 | 19.44° C | 82% | 1026.1 hPa | 0.25 mm | - | - | - |
| 1777513481 | 19.44° C | 82% | 1026.2 hPa | 0.25 mm | - | - | - |
| 1777513181 | 19.44° C | 84% | 1026.4 hPa | 0.25 mm | - | - | - |
| 1777512881 | 18.89° C | 85% | 1026.3 hPa | 0.25 mm | - | - | - |
| 1777512581 | 18.89° C | 85% | 1026.4 hPa | 0.25 mm | - | - | - |
| 1777512281 | 18.89° C | 85% | 1026.6 hPa | 0.25 mm | - | - | - |
* Rain latest hour (hover to see other rain measurements)
** Current wind speed in m/s (hover to see current wind gust speed)